Location: Beaurecueil
(43.5122°N, 5.5450°E)
Time: 01:14:03
(UTC+00:00)

In-Cosmos 22 - Pass Details

Date: 18 September 2020
Orbit: 785 x 876 km, 81.2° (Epoch: 26 October)

Event Time Altitude Azimuth Distance (km) Brightness Sun altitude
Rises 19:09:28 0° 351° (N) 3,286 7.7 -16.4°
Reaches altitude 10° 19:11:51 10° 353° (N) 2,355 6.8 -16.8°
Maximum altitude 19:17:08 74° 79° (ENE) 828 4.0 -17.7°
Enters shadow 19:21:21 17° 163° (SSE) 1,942 5.7 -18.4°
